This is the latest recevied weather packets stored in our database for station/object KC3UTO. If no packets are shown the sender has not sent any weather packets the latest 1 day(s).
| Time | Temp. | Humidity | Pressure | Rain* | Wind** | Luminosity | Snow |
|---|---|---|---|---|---|---|---|
| 1778029866 | 23.33° C | 40% | 1008.4 hPa | 0 mm | 0.45 m/s, 125° | 0 W/m² | - |
| 1778029566 | 23.33° C | 39% | 1008.3 hPa | 0 mm | 0.45 m/s, 74° | 0 W/m² | - |
| 1778029262 | 23.89° C | 39% | 1008.2 hPa | 0 mm | 0.89 m/s, 311° | 0 W/m² | - |
| 1778028959 | 23.89° C | 38% | 1008.3 hPa | 0 mm | 0 m/s | 0 W/m² | - |
| 1778028655 | 23.89° C | 38% | 1008.2 hPa | 0 mm | 0.45 m/s, 341° | 0 W/m² | - |
| 1778028352 | 23.89° C | 38% | 1008.2 hPa | 0 mm | 0.45 m/s, 245° | 0 W/m² | - |
| 1778028049 | 23.89° C | 38% | 1008.2 hPa | 0 mm | 2.24 m/s, 235° | 0 W/m² | - |
| 1778027745 | 23.89° C | 39% | 1008.3 hPa | 0 mm | 0.89 m/s, 94° | 0 W/m² | - |
| 1778027442 | 23.89° C | 38% | 1007.9 hPa | 0 mm | 0.89 m/s, 256° | 0 W/m² | - |
| 1778027137 | 23.89° C | 38% | 1008.1 hPa | 0 mm | 0.45 m/s, 43° | 0 W/m² | - |
| 1778026833 | 23.89° C | 37% | 1007.9 hPa | 0 mm | 2.68 m/s, 256° | 0 W/m² | - |
| 1778026530 | 23.89° C | 37% | 1007.9 hPa | 0 mm | 0 m/s | 0 W/m² | - |
| 1778026227 | 24.44° C | 37% | 1007.9 hPa | 0 mm | 1.79 m/s, 230° | 1 W/m² | - |
| 1778025925 | 24.44° C | 37% | 1007.8 hPa | 0 mm | 0.89 m/s, 40° | 1 W/m² | - |
| 1778025622 | 24.44° C | 37% | 1007.8 hPa | 0 mm | 0 m/s | 2 W/m² | - |
| 1778025320 | 24.44° C | 36% | 1007.7 hPa | 0 mm | 0.89 m/s, 264° | 3 W/m² | - |
| 1778025016 | 25° C | 36% | 1007.7 hPa | 0 mm | 0 m/s | 6 W/m² | - |
| 1778024714 | 25° C | 35% | 1007.9 hPa | 0 mm | 0.89 m/s, 96° | 8 W/m² | - |
| 1778024410 | 25° C | 36% | 1007.5 hPa | 0 mm | 2.68 m/s, 225° | 11 W/m² | - |
| 1778024108 | 25° C | 35% | 1007.6 hPa | 0 mm | 0.45 m/s, 269° | 15 W/m² | - |
| 1778023805 | 25° C | 35% | 1007.7 hPa | 0 mm | 0.89 m/s, 342° | 23 W/m² | - |
| 1778023503 | 25° C | 35% | 1007.9 hPa | 0 mm | 1.34 m/s, 284° | 29 W/m² | - |
| 1778023200 | 25° C | 35% | 1007.5 hPa | 0 mm | 2.68 m/s, 211° | 32 W/m² | - |
| 1778022897 | 25.56° C | 35% | 1007.5 hPa | 0 mm | 0.89 m/s, 260° | 38 W/m² | - |
| 1778022595 | 25.56° C | 35% | 1007.6 hPa | 0 mm | 1.34 m/s, 258° | 44 W/m² | - |
* Rain latest hour (hover to see other rain measurements)
** Current wind speed in m/s (hover to see current wind gust speed)